User: anonymous   Login
Location: Unspecified
(0.0000°N, 0.0000°E)
Time: 18:14:06
(UTC+00:00)
Language:

STARLINK-32609 - Orbit

View from above orbital plane
View from above orbital plane
View from above satellite
View from above satellite

Ground track
Ground track

The orbit is defined by the following mean orbital elements,

1 61929U          26145.45612134 +.00000000 +00000-0 +68488-3 0 00001
2 61929  42.9990 208.1031 0001720 279.7432  80.3225 15.27598919    07
Epoch (UTC): 25 May 2026 10:56:48
Eccentricity: 0.0001720
inclination: 42.9990°
perigee height: 482 km
apogee height: 484 km
right ascension of ascending node: 208.1031°
argument of perigee: 279.7432°
revolutions per day: 15.27598919
mean anomaly at epoch: 80.3225°

The dashed part of the orbit path shows where the satellite is in the earth's shadow,  

DLR